Tracking 19242 objects as of 19-Sep-2018
HD Live streaming from Space Station
objects crossing your sky now

FENGYUN 1C DEB

Track FENGYUN 1C DEB now!
10-day predictions


NORAD ID: 30826
Int'l Code: 1999-025AVL
Perigee: 555.5 km
Apogee: 831.0 km
Inclination: 98.8 °
Period: 98.5 minutes
Semi major axis: 7064 km
RCS: 0.0008 m2 (small)
Launch date: May 10, 1999
Source: People's Republic of China (PRC)
Launch site: Taiyaun Space Center, China (TSC)

Note: This is SATELLITE DEBRIS
aabbcc
Your satellite tracking list
Your tracking list is empty




NASA's NSSDC Master Catalog

Two Line Element Set (TLE):
1 30826U 99025AVL 18261.72389100  .00000173  00000-0  37121-4 0  9991
2 30826  98.8256 209.4387 0195016 260.4502 218.1462 14.62184231615540
Source of the keplerian elements: AFSPC